{"data":{"norad_id":61598,"intl_designator":"2024-188E","name":"ONEWEB-0690","alt_names":[],"object_type":"PAYLOAD","status":"ACTIVE","operator":null,"country":"UK","launch_date":"2024-10-20","launch_site_code":"AFWTR","launch_vehicle":null,"mission":null,"orbit_class":"UNKNOWN","rcs_meters":null,"size_class":null,"mass_kg":null,"dimensions":null,"purposes":["comms"],"wikipedia_slug":null,"has_3d_model":false,"image_url":null,"decayed_at":null,"tle_current":{"epoch":"2026-09-19T13:55:18.468768Z","epoch_age_seconds":97833,"freshness":"FRESH","line1":"1 61598U 24188E   26262.58007487  .00000567  00000+0  15628-2 0  9990","line2":"2 61598  87.8972   2.3037 0002124  86.0369 274.1001 13.11416432 97005","mean_motion":13.11416432,"eccentricity":0.0002124,"inclination_deg":87.8972,"raan_deg":2.3037,"arg_perigee_deg":86.0369,"mean_anomaly_deg":274.1001,"bstar":0.0015628,"rev_number":9700,"period_min":109.80493799394,"perigee_km":1216.0713267379,"apogee_km":1219.2980317872,"semimajor_km":7595.8216792626,"source":"CELESTRAK","updated_at":"2026-09-20T09:00:44.798830Z"}}}